Regional Weather Roundup
Issued by NWS Cleveland, OH

Home | Current Version | Previous Version | Graphics & Text | Print | Product List | Glossary On
Versions: 1 2 3 4 5 6 7 8 9 10 11 12 13 14 15 16 17 18 19 20 21 22 23 24 25 26 27 28 29 30 31 32 33 34 35 36 37 38 39 40 41 42 43 44 45 46 47 48 49 50
000
ASUS41 KCLE 032010
RWRCLE
OHIO REGIONAL WEATHER ROUNDUP
NATIONAL WEATHER SERVICE WILMINGTON, OH
400 PM EDT TUE MAY 03 2016

NOTE: "FAIR" INDICATES FEW OR NO CLOUDS BELOW 12,000 FEET WITH NO
SIGNIFICANT WEATHER AND/OR OBSTRUCTIONS TO VISIBILITY.

OHZ001>008-015>018-024>027-034-035-043-044-032100-
   NORTHWEST OHIO

CITY           SKY/WX    TMP DP  RH WIND       PRES   REMARKS
DEFIANCE       PTSUNNY   61  41  47 VRB3      29.86F
FINDLAY        CLOUDY    61  39  44 NW8       29.85F
TOLEDO EXPRESS CLOUDY    62  37  39 CALM      29.84F
TOLEDO EXEC    CLOUDY    59  46  62 E8        29.86F
LIMA           CLOUDY    58  45  62 SW3       29.87F
$$

OHZ009>014-019>023-028>033-038-089-032100-
   NORTHEAST OHIO

CITY           SKY/WX    TMP DP  RH WIND       PRES   REMARKS
CLE-HOPKINS    FAIR      59  38  45 NW9       29.88F
CLE-LAKEFRONT  FAIR      52  42  69 NW6       29.86F
CUY CO. ARPT   MOSUNNY   57  43  58 N12       29.86F
LORAIN-ELYRIA  FAIR      59  38  45 NE9       29.86F
ASHTABULA      PTSUNNY   55  42  61 N7        29.85F
AKRON-CANTON   PTSUNNY   61  39  44 NW9       29.83F
WOOSTER        CLOUDY    60  43  53 NW10      29.84F
MANSFIELD      CLOUDY    55  44  66 NW8       29.85F
YOUNGSTOWN     FAIR      58  39  49 NW10      29.82F
$$

OHZ042-051>053-060>062-070>072-077>081-032100-
  SOUTHWEST OHIO

CITY           SKY/WX    TMP DP  RH WIND       PRES   REMARKS
CINC-COVINGTON CLOUDY    59  48  67 NW8       29.88F
CINC-LUNKEN    CLOUDY    58  50  75 VRB6      29.89F
HAMILTON       CLOUDY    59  48  67 VRB6      29.89F
DAYTON         CLOUDY    57  45  64 NW3       29.89F
WRIGHT-PAT AFB CLOUDY    56  48  74 CALM      29.88F
DAYTON GENERAL CLOUDY    58  44  60 NW5       29.87F
WILMINGTON     CLOUDY    57  48  72 N9        29.87F
$$

OHZ036-037-039>041-045>050-054>059-063>069-073>076-082>088-032100-
  CENTRAL AND SOUTHEAST OHIO

CITY           SKY/WX    TMP DP  RH WIND       PRES   REMARKS
COLUMBUS       CLOUDY    58  45  62 N7        29.85F
OSU AIRPORT    LGT RAIN  57  48  72 N9        29.86S
BOLTON FIELD   CLOUDY    57  46  67 NW7       29.86F
RICKENBACK AFB CLOUDY    58  46  62 CALM      29.85S
NEWARK         CLOUDY    63  44  50 NW6       29.83F
MARION         CLOUDY    59  43  55 VRB6      29.87F
LANCASTER      CLOUDY    59  46  62 CALM      29.85F
ZANESVILLE     PTSUNNY   62  46  55 W5        29.84F
NEW PHILLY     CLOUDY    61  41  47 N8        29.83F
$$




USA.gov is the U.S. government's official web portal to all federal, state and local government web resources and services.